Temp
46 44 41 48 44 44 43 39 40 43 48 46 45 45 53 53 48 49 53 52 54 55 61 56 54 53 50 50 50 51 52 53 53 54 52 51 51 50 50 51 52 53 55 55
43 39 48 48 46 45 42 39 39 43 45 46 44 43 49 53 53 55 57 59 57 57 54 54 51 49 50 51 50 50 52 52 54 55 55 54 51 48 49 49 49 50 51 54
41 46 47 48 42 42 40 39 38 42 42 41 40 39 41 48 50 53 55 58 60 59 58 53 48 48 49 48 48 50 52 52 54 52 50 47 48 47 46 46 46 46 48 49
43 47 47 43 41 45 38 44 43 40 39 35 39 35 42 48 50 51 56 55 55 53 52 52 48 47 48 49 50 50 52 52 53 50 50 50 49 47 47 47 45 44 45 47
43 42 43 42 44 46 42 43 42 40 36 34 33 33 38 42 46 53 60 56 53 52 51 51 48 50 49 47 48 50 51 51 53 50 51 51 50 50 47 43 42 41 42 43
41 43 45 46 44 47 45 42 39 34 34 29 35 36 38 41 47 51 55 53 51 51 50 48 47 46 45 44 47 49 50 50 48 50 49 51 50 44 43 41 40 40 40 39
38 41 43 45 42 43 42 40 32 28 25 31 32 32 43 48 49 50 56 52 48 48 49 47 44 42 41 42 45 48 50 50 49 48 49 50 47 46 45 42 42 39 38 38
37 34 42 45 48 42 39 40 32 23 24 30 31 30 41 46 51 49 48 46 47 48 46 44 43 41 41 42 45 47 48 49 49 49 49 49 47 46 47 45 44 43 43 41
33 34 38 40 41 49 38 35 43 35 17 23 33 37 44 45 46 47 46 44 48 48 46 44 42 40 40 41 44 47 49 49 47 48 47 46 45 45 44 43 43 43 42 40
41 34 36 38 42 40 41 43 34 31 23 19 31 32 38 45 46 47 45 48 47 45 44 42 40 39 40 41 44 48 49 47 46 47 46 44 44 44 43 41 40 39 38 38
43 39 33 36 36 37 37 36 35 37 31 25 21 37 41 45 47 48 48 48 48 45 45 42 40 39 39 40 41 46 45 43 44 45 44 43 43 43 41 40 38 38 37 37
44 40 35 33 37 37 35 37 37 32 27 28 28 39 44 44 44 46 46 47 46 45 44 41 40 38 37 38 39 41 43 42 43 44 43 42 41 40 39 39 37 37 36 35
45 35 30 32 35 37 37 38 45 39 34 30 29 39 41 41 42 44 46 46 45 43 42 41 38 37 37 37 38 39 41 41 41 41 41 40 39 39 39 37 37 36 35 35
47 35 34 33 35 36 33 35 40 43 34 35 37 44 44 42 44 46 45 45 45 43 42 40 38 38 38 38 38 39 40 41 40 40 40 39 38 38 39 37 36 35 35 34
42 32 34 37 35 35 35 35 38 39 42 36 42 41 50 50 47 49 47 47 45 43 41 41 41 39 39 38 38 39 40 39 39 39 39 39 38 38 37 36 35 35 34 35
40 32 33 32 37 35 34 36 36 38 42 43 45 44 55 50 49 45 50 48 45 44 44 44 42 41 39 39 39 38 39 37 38 38 38 37 36 36 35 35 34 34 33 33
36 32 32 29 35 35 30 35 37 36 40 43 38 47 54 45 46 46 47 46 46 46 46 45 44 44 43 42 41 38 39 38 36 36 36 35 34 34 34 34 33 32 32 32
35 34 33 31 31 25 37 39 43 41 43 44 45 48 50 45 46 47 48 45 46 44 44 44 43 43 41 40 38 38 36 35 35 35 34 34 33 33 34 33 32 32 32 31
41 36 32 29 30 34 34 34 35 36 39 46 43 46 50 51 40 46 42 46 47 42 42 41 40 40 39 38 36 34 33 33 33 33 32 32 32 31 32 31 31 31 30 30
37 39 33 31 27 26 32 30 34 41 33 43 44 46 46 40 35 46 39 39 37 36 36 36 35 35 35 34 33 32 30 30 31 32 32 31 32 30 29 31 30 30 30 28
29 31 30 31 29 32 37 34 38 31 36 28 38 45 45 39 42 38 35 35 35 35 35 34 33 34 34 31 30 29 28 29 30 30 30 30 30 29 30 30 30 28 28 27
28 28 29 30 27 25 30 31 33 35 36 32 34 36 35 35 36 36 37 35 35 34 33 31 28 27 26 29 29 28 28 28 28 29 29 30 30 30 30 28 28 28 27 26
27 30 25 29 30 33 33 35 39 37 35 36 36 37 38 37 36 36 36 34 33 27 28 26 25 25 25 26 28 27 27 28 27 27 28 28 28 29 29 28 27 27 27 26
32 37 31 30 37 37 40 40 38 38 37 37 36 36 36 36 36 35 31 33 32 26 28 25 26 26 26 25 28 28 30 30 30 29 29 29 28 28 28 29 28 28 27 26
28 28 27 30 32 34 35 37 38 38 36 35 34 35 35 35 31 31 29 27 29 28 25 25 26 25 23 24 26 30 31 32 31 30 28 29 29 29 28 28 29 28 29 30
28 29 29 26 33 35 38 40 36 35 35 35 34 33 34 34 33 29 26 26 25 25 23 24 22 21 18 20 19 23 29 33 31 28 28 29 28 27 24 24 24 30 30 32
MSLP
1018.94 1019.56 1019.85 1019.19 1019.76 1019.97 1020.24 1020.56 1020.60 1020.08 1019.40 1019.62 1019.09 1018.61 1017.28 1016.90 1017.00 1016.40 1015.89 1015.65 1015.31 1014.97 1013.97 1014.86 1015.53 1016.38 1017.41 1018.24 1018.71 1019.07 1019.54 1019.90 1020.28 1020.67 1021.33 1021.82 1022.00 1022.37 1022.48 1022.69 1022.65 1022.60 1022.82 1023.28
1019.74 1019.45 1018.87 1019.32 1019.74 1020.05 1020.29 1020.57 1020.64 1020.03 1019.65 1019.89 1019.02 1018.32 1017.20 1016.12 1015.35 1014.64 1014.33 1013.91 1013.68 1013.64 1013.51 1013.99 1014.84 1015.90 1016.40 1016.95 1017.78 1018.48 1018.76 1019.24 1019.69 1020.07 1020.70 1021.20 1021.81 1022.39 1022.44 1022.80 1022.99 1022.88 1022.94 1023.24
1019.14 1018.73 1018.66 1019.11 1019.74 1020.24 1020.32 1020.49 1020.47 1020.35 1020.05 1020.00 1019.66 1017.75 1016.65 1014.66 1014.20 1013.55 1012.89 1012.14 1012.32 1012.51 1012.87 1013.64 1014.65 1015.08 1015.85 1016.38 1016.73 1017.25 1017.87 1018.51 1019.14 1019.76 1020.53 1021.50 1022.10 1022.47 1022.74 1022.85 1023.23 1023.22 1023.29 1023.11
1018.98 1018.33 1018.70 1019.21 1019.53 1019.66 1019.82 1019.57 1019.93 1020.44 1020.91 1020.70 1019.86 1017.74 1016.22 1014.66 1013.64 1012.89 1011.44 1011.16 1011.34 1012.00 1012.48 1013.21 1013.87 1014.47 1014.87 1015.24 1016.19 1016.84 1017.43 1017.97 1018.60 1019.13 1019.94 1020.32 1020.67 1021.40 1021.87 1022.45 1022.72 1023.22 1023.45 1023.64
1017.52 1017.95 1018.33 1018.64 1018.51 1019.15 1019.24 1019.43 1020.10 1020.59 1021.09 1021.06 1020.10 1019.75 1014.62 1014.42 1013.60 1012.09 1010.61 1010.48 1011.09 1011.58 1012.03 1012.42 1013.04 1013.48 1014.21 1015.06 1015.67 1016.38 1017.03 1017.65 1018.17 1018.94 1019.47 1019.95 1020.44 1020.91 1021.67 1022.41 1022.99 1023.54 1023.86 1023.88
1017.68 1017.63 1017.72 1017.58 1018.12 1018.40 1019.10 1019.76 1020.67 1021.37 1021.65 1020.88 1018.91 1018.40 1014.86 1013.81 1012.22 1011.45 1010.51 1010.78 1011.31 1011.76 1012.17 1012.63 1013.04 1013.57 1014.33 1015.07 1015.70 1016.14 1016.58 1016.96 1017.58 1018.33 1018.98 1019.41 1019.93 1020.79 1021.81 1022.48 1023.17 1023.64 1023.84 1024.27
1017.84 1017.42 1017.33 1017.40 1018.25 1018.96 1018.96 1019.89 1021.10 1021.81 1022.10 1019.69 1018.42 1017.92 1013.89 1012.59 1011.58 1011.01 1010.61 1010.94 1011.50 1011.89 1012.47 1012.98 1013.51 1014.02 1014.43 1014.99 1015.52 1016.13 1016.58 1016.93 1017.46 1018.06 1018.52 1019.05 1019.70 1020.41 1021.07 1021.71 1022.64 1023.47 1023.96 1024.32
1017.47 1017.28 1016.86 1016.75 1016.50 1017.42 1018.66 1018.78 1019.80 1020.64 1021.46 1019.99 1018.79 1016.09 1012.39 1011.22 1010.75 1010.47 1010.96 1011.16 1011.49 1011.84 1012.58 1013.12 1013.64 1014.12 1014.40 1014.79 1015.25 1015.68 1016.24 1016.78 1017.40 1017.87 1018.36 1018.90 1019.45 1020.08 1020.71 1021.23 1021.92 1022.59 1022.96 1023.22
1016.87 1016.57 1016.01 1016.11 1016.15 1016.47 1018.00 1018.46 1018.18 1019.54 1021.34 1020.70 1017.15 1014.03 1012.03 1010.95 1010.56 1010.66 1010.92 1011.40 1011.46 1011.77 1012.44 1012.95 1013.67 1014.15 1014.52 1014.84 1015.07 1015.35 1015.90 1016.44 1017.10 1017.73 1018.45 1019.13 1019.67 1020.20 1020.80 1021.50 1022.08 1022.70 1023.09 1023.63
1015.44 1016.26 1016.24 1016.39 1016.42 1016.53 1016.52 1016.92 1018.34 1019.15 1020.33 1019.65 1015.94 1014.41 1012.26 1010.96 1010.31 1010.12 1010.84 1011.13 1011.25 1011.61 1012.41 1013.10 1013.74 1014.14 1014.39 1014.59 1014.84 1015.27 1015.64 1016.19 1016.62 1017.16 1017.85 1018.58 1019.13 1019.73 1020.40 1021.11 1021.65 1022.42 1023.11 1023.71
1015.17 1015.85 1016.77 1016.78 1016.34 1016.00 1016.81 1016.68 1017.04 1017.57 1018.20 1017.76 1016.38 1012.12 1010.20 1009.72 1009.65 1010.01 1010.46 1010.54 1011.22 1011.73 1012.56 1013.27 1013.65 1014.03 1014.48 1014.63 1014.89 1014.99 1015.27 1015.63 1016.12 1016.55 1017.39 1018.19 1018.94 1019.64 1020.32 1021.10 1021.81 1022.56 1023.17 1023.80
1014.76 1015.32 1015.96 1015.97 1015.75 1015.85 1015.76 1015.57 1015.64 1016.04 1017.31 1016.95 1015.69 1009.79 1009.31 1009.24 1009.32 1009.62 1010.20 1010.59 1011.03 1011.41 1012.31 1013.07 1013.63 1014.08 1014.47 1014.44 1014.51 1014.86 1015.33 1015.71 1015.88 1016.20 1016.94 1017.61 1018.14 1018.90 1019.89 1020.58 1021.52 1022.09 1022.79 1023.76
1014.20 1015.60 1016.27 1016.10 1016.21 1015.93 1015.53 1015.39 1014.99 1015.15 1015.51 1014.59 1014.47 1009.06 1009.69 1009.59 1009.51 1010.08 1010.39 1010.71 1011.18 1011.65 1012.39 1012.89 1013.61 1013.97 1014.25 1014.33 1014.24 1014.56 1014.86 1015.19 1015.73 1016.16 1016.57 1017.16 1017.75 1018.40 1018.84 1019.61 1020.66 1021.70 1022.80 1023.68
1013.95 1015.16 1015.24 1014.51 1014.12 1014.05 1014.80 1014.42 1014.20 1014.06 1014.35 1012.26 1011.55 1008.73 1009.05 1009.29 1009.56 1009.69 1010.21 1010.64 1011.00 1011.64 1012.31 1012.65 1013.12 1013.40 1013.71 1013.57 1013.55 1013.97 1014.31 1014.74 1015.31 1015.99 1016.48 1017.01 1017.53 1018.02 1018.49 1019.26 1020.12 1021.14 1021.64 1022.87
1015.02 1015.10 1015.23 1014.57 1014.45 1014.06 1013.54 1013.50 1013.37 1013.21 1011.79 1012.64 1008.11 1009.88 1006.17 1008.58 1009.10 1009.06 1009.54 1009.97 1010.46 1011.09 1011.76 1011.84 1012.01 1012.39 1012.71 1012.86 1012.96 1013.23 1013.47 1013.82 1014.28 1015.15 1015.86 1016.00 1016.58 1017.29 1018.22 1018.77 1019.64 1020.37 1021.46 1022.08
1015.39 1015.24 1015.52 1014.78 1014.48 1014.27 1013.92 1013.41 1012.65 1012.31 1011.24 1011.20 1008.81 1008.41 1005.28 1007.24 1008.03 1008.89 1009.17 1009.35 1009.91 1010.25 1010.53 1010.55 1010.88 1011.35 1011.52 1011.43 1011.52 1012.16 1012.58 1013.05 1013.71 1014.11 1014.60 1015.52 1016.34 1017.21 1017.99 1018.75 1019.23 1019.96 1020.97 1021.81
1014.93 1015.05 1015.05 1013.60 1013.57 1013.65 1013.01 1011.14 1012.40 1011.57 1010.52 1009.91 1009.00 1005.32 1005.65 1007.38 1008.14 1008.48 1008.42 1008.93 1009.29 1009.39 1009.45 1009.77 1009.97 1010.00 1010.10 1010.24 1010.62 1010.98 1011.76 1012.69 1013.20 1013.89 1014.53 1014.97 1015.89 1016.69 1017.25 1018.26 1019.21 1019.81 1020.55 1021.34
1013.92 1013.98 1013.90 1012.83 1013.44 1011.73 1009.72 1009.42 1009.47 1009.59 1008.50 1008.66 1007.84 1005.54 1005.25 1006.79 1007.51 1007.69 1007.25 1008.23 1008.47 1008.67 1008.88 1009.11 1009.37 1009.30 1009.24 1009.49 1009.91 1010.49 1011.11 1012.02 1012.95 1013.47 1014.30 1014.67 1015.61 1016.46 1017.00 1017.73 1018.44 1019.47 1020.25 1020.91
1012.99 1013.43 1013.00 1012.53 1011.41 1010.09 1009.64 1009.11 1009.03 1009.22 1007.87 1007.90 1007.33 1006.27 1005.66 1006.07 1007.69 1006.93 1007.44 1007.39 1007.68 1008.42 1008.93 1009.04 1009.31 1009.23 1009.08 1009.34 1009.65 1009.81 1011.22 1011.71 1012.40 1013.21 1014.14 1014.84 1015.49 1016.50 1017.20 1017.71 1018.26 1019.09 1019.97 1020.84
1012.49 1012.28 1012.33 1011.55 1010.44 1009.84 1009.24 1008.92 1008.18 1008.18 1008.22 1006.73 1007.15 1006.72 1006.19 1006.42 1007.91 1006.00 1007.07 1007.47 1008.04 1008.85 1008.95 1009.27 1009.49 1009.23 1009.18 1009.69 1009.96 1010.48 1010.89 1012.09 1012.33 1012.97 1013.75 1014.34 1015.20 1016.05 1017.13 1017.79 1018.26 1019.12 1019.86 1020.82
1012.78 1012.23 1011.28 1010.60 1009.81 1009.49 1008.65 1008.73 1008.84 1009.27 1007.57 1006.95 1006.40 1006.06 1005.92 1006.94 1006.94 1007.35 1007.86 1008.14 1008.68 1008.93 1009.20 1009.41 1009.41 1009.24 1009.54 1010.04 1010.28 1010.94 1011.38 1011.94 1012.61 1013.12 1013.79 1014.61 1015.16 1015.90 1016.77 1017.82 1018.45 1019.26 1019.98 1021.01
1012.41 1011.72 1011.06 1010.84 1010.27 1009.37 1009.08 1009.55 1009.49 1009.57 1007.61 1006.92 1006.83 1006.77 1006.82 1007.18 1007.60 1007.83 1008.01 1008.45 1009.10 1009.32 1009.35 1009.67 1010.00 1010.11 1010.12 1010.11 1010.61 1011.00 1011.49 1011.94 1012.57 1013.34 1014.12 1014.72 1015.40 1016.18 1017.02 1017.85 1018.89 1019.39 1020.06 1021.25
1012.35 1011.34 1010.96 1010.42 1009.65 1009.11 1009.05 1009.22 1008.51 1008.69 1009.16 1008.93 1008.78 1007.15 1007.25 1006.88 1007.69 1008.06 1008.50 1008.87 1009.22 1009.76 1009.93 1010.30 1010.72 1010.88 1010.95 1010.62 1010.80 1011.52 1011.81 1012.04 1012.49 1013.34 1014.34 1014.82 1015.69 1016.31 1017.02 1017.59 1018.49 1019.43 1020.02 1020.74
1011.18 1010.52 1010.88 1010.50 1008.84 1009.37 1008.88 1008.74 1008.46 1008.07 1008.37 1009.10 1009.22 1009.18 1008.75 1008.26 1008.20 1008.08 1008.63 1009.06 1009.49 1010.14 1010.32 1010.84 1011.38 1011.56 1011.68 1011.36 1011.70 1011.72 1012.20 1012.72 1013.04 1014.17 1014.43 1014.71 1015.21 1016.07 1016.93 1017.66 1018.08 1018.96 1019.50 1020.07
1011.71 1011.38 1010.67 1009.85 1009.34 1009.10 1008.77 1008.94 1008.76 1008.46 1008.12 1008.28 1008.54 1008.82 1009.37 1009.55 1008.85 1008.85 1009.34 1009.92 1009.99 1010.43 1010.95 1011.04 1011.48 1011.80 1012.48 1012.34 1012.59 1012.57 1012.64 1012.65 1013.46 1014.32 1014.69 1015.17 1015.82 1016.28 1016.70 1017.44 1018.53 1018.50 1019.31 1019.64
1010.95 1010.64 1010.43 1009.84 1009.37 1009.57 1008.72 1007.99 1008.07 1008.73 1008.54 1008.57 1009.06 1009.13 1009.31 1009.53 1009.30 1009.41 1009.88 1010.20 1010.64 1011.05 1011.07 1011.60 1012.28 1012.72 1013.26 1013.56 1013.63 1013.62 1013.24 1013.52 1013.97 1014.27 1014.69 1015.42 1015.96 1016.69 1017.43 1017.81 1018.46 1019.14 1019.30 1019.64
Wind_Speed
3 4 7 17 7 3 6 4 4 5 4 4 9 10 17 9 7 12 14 15 16 16 16 10 12 12 10 9 11 11 11 10 9 6 5 4 4 2 2 2 3 5 8 10
4 7 12 6 7 5 4 3 6 7 3 6 9 13 14 16 13 15 17 18 18 16 9 9 8 11 14 14 13 12 13 13 10 7 5 3 3 1 2 2 2 3 6 10
9 5 2 8 5 6 5 6 6 9 3 3 5 10 8 8 8 12 18 22 17 17 17 8 9 13 11 14 17 15 15 14 11 9 7 4 5 3 2 2 2 2 5 7
7 4 6 4 4 7 6 9 5 2 2 5 1 11 5 7 10 8 17 12 13 10 8 5 9 10 14 16 11 12 13 14 11 12 10 10 6 6 4 4 3 3 3 6
9 9 7 6 8 8 6 6 6 3 3 4 2 1 7 1 7 17 15 9 8 8 9 10 10 10 9 10 13 13 13 13 12 11 11 9 7 4 5 4 6 4 3 3
3 1 6 8 3 5 7 6 5 5 2 6 10 9 5 6 10 6 8 3 4 3 5 5 3 5 5 7 10 12 14 14 13 14 11 12 11 9 8 6 6 4 3 3
2 5 3 4 7 4 3 6 2 4 1 10 3 4 7 8 9 8 10 2 2 1 3 3 2 4 6 10 11 11 13 13 12 13 13 12 10 12 12 12 9 9 6 4
9 8 12 8 13 10 9 9 8 8 5 6 1 10 8 9 11 9 7 3 5 7 3 3 4 5 6 9 10 12 13 12 12 11 11 9 10 7 7 10 9 8 8 8
7 8 1 3 2 11 7 8 5 2 3 2 7 9 8 10 11 9 5 2 7 6 6 5 4 5 6 8 11 12 14 15 12 11 8 7 7 8 7 8 7 5 5 5
5 4 0 1 3 2 6 8 4 2 3 6 6 7 9 6 10 7 5 8 6 3 3 3 5 6 6 7 9 9 10 12 12 11 10 9 10 10 9 9 9 8 6 9
5 4 1 3 6 11 4 5 2 5 5 6 3 11 9 9 8 8 6 7 5 2 3 5 5 5 5 5 7 10 11 12 13 12 11 11 9 10 9 9 8 8 8 9
8 3 11 10 3 2 1 4 6 6 5 5 3 18 4 5 2 8 7 6 3 3 3 5 4 4 4 7 8 10 10 11 11 11 12 12 11 11 10 10 10 10 11 9
8 4 2 2 1 0 6 6 13 3 3 10 7 15 1 3 2 4 5 5 5 3 4 4 4 6 7 8 8 10 10 11 10 11 12 12 12 12 13 13 12 12 12 11
8 6 8 9 3 6 7 8 13 19 8 9 18 22 7 4 6 6 8 7 8 7 8 6 7 8 9 9 9 10 10 10 11 11 12 12 12 13 13 12 12 13 14 14
2 3 6 14 4 2 5 8 14 20 28 14 31 17 29 13 8 11 7 8 8 8 8 9 9 8 10 9 9 10 11 12 13 13 14 14 13 12 11 12 13 13 14 13
6 5 4 4 10 7 9 8 11 19 24 20 29 25 18 7 7 2 10 9 9 9 11 11 9 9 11 13 12 11 13 13 14 14 15 12 12 12 12 12 12 13 13 12
7 5 4 15 8 10 11 26 15 12 14 19 23 35 22 7 9 7 12 10 10 11 11 9 10 11 10 11 10 12 11 10 13 13 11 12 12 13 13 12 13 13 14 14
7 11 6 11 2 17 12 6 22 24 26 20 23 29 20 8 7 12 12 5 11 10 9 8 7 7 7 5 7 7 9 11 11 11 11 12 12 12 12 13 13 13 12 14
16 11 9 8 12 7 8 7 11 13 23 21 24 26 28 21 3 19 9 12 10 4 4 4 5 6 6 6 6 8 8 9 11 10 10 9 10 10 11 12 12 11 11 11
12 16 12 9 9 10 8 3 3 5 14 16 18 25 25 7 7 18 5 4 2 2 3 5 6 4 3 2 6 7 7 7 8 9 9 10 11 11 11 11 11 10 10 9
4 5 16 16 15 9 8 7 5 8 11 2 10 20 18 10 7 1 1 2 2 2 4 3 2 0 1 5 7 6 6 7 5 7 8 8 9 10 10 10 9 9 10 9
7 7 8 7 11 17 2 2 9 7 6 3 4 4 5 3 5 5 7 4 5 2 3 4 2 2 2 4 6 7 7 6 8 8 8 9 9 8 9 11 9 11 11 10
4 4 2 5 3 4 4 8 10 3 4 6 9 4 5 6 6 5 5 4 2 1 1 1 3 3 3 3 6 6 4 8 9 9 9 9 9 9 10 12 12 9 10 9
9 12 8 4 10 15 14 9 7 5 9 5 5 8 6 5 5 4 2 2 1 1 2 2 4 5 4 3 4 6 7 7 9 8 9 9 10 9 7 5 7 7 8 9
4 2 4 8 5 7 4 7 10 10 7 7 6 5 7 8 4 2 2 2 2 3 1 3 5 5 3 4 5 6 8 9 9 8 7 8 6 8 9 6 6 6 6 8
6 7 5 4 7 9 17 12 2 7 7 8 8 5 6 5 5 4 3 2 2 3 3 5 5 6 4 5 5 5 4 6 9 8 7 6 6 6 6 7 6 8 8 8
Wind_Direction
9 105 190 217 184 132 136 181 231 251 248 192 232 248 267 264 237 257 260 250 250 247 249 215 209 195 183 189 187 186 178 176 164 162 163 173 174 165 143 146 143 139 147 150
46 224 228 103 164 171 158 177 248 275 249 185 273 254 254 260 246 238 249 254 245 242 246 229 190 186 194 191 189 184 187 177 180 175 164 147 137 133 115 142 148 144 148 158
178 207 122 155 153 158 211 191 213 228 327 248 312 276 242 280 253 258 250 248 254 245 250 225 192 203 192 191 191 189 187 180 178 152 127 98 95 90 124 137 179 150 152 141
230 213 152 164 190 162 238 205 185 194 77 252 194 287 265 249 253 254 259 246 250 241 244 223 202 202 200 205 186 180 183 176 176 159 171 175 177 163 184 168 141 126 142 166
232 170 173 181 195 166 231 134 166 159 184 344 207 220 266 35 259 255 264 261 256 250 234 233 211 213 202 177 179 177 176 181 173 176 187 187 181 158 137 126 130 138 125 120
234 69 167 196 118 160 141 84 55 52 88 270 197 192 225 189 213 265 267 340 2 306 274 273 246 170 156 154 173 178 181 182 171 182 181 190 179 149 149 148 158 159 139 116
124 211 188 149 87 36 145 109 299 320 355 243 16 242 259 269 236 229 247 116 108 340 318 311 199 169 151 165 172 181 194 191 177 183 186 191 170 168 174 166 171 164 160 177
190 262 167 191 195 171 197 164 171 211 213 275 24 242 243 233 257 258 287 293 251 291 310 263 237 203 176 173 175 181 194 190 180 182 184 176 170 176 180 177 174 181 184 178
170 264 245 154 140 153 190 204 191 56 88 7 225 285 286 271 277 271 258 239 261 259 274 263 205 197 181 177 185 187 197 200 181 181 168 166 163 163 164 166 165 171 158 140
209 274 152 187 120 9 165 170 91 324 199 253 264 270 230 248 248 256 220 224 254 229 234 229 209 204 197 185 184 191 192 189 177 170 166 168 170 168 162 157 163 161 144 145
149 142 185 103 213 173 153 205 168 136 154 182 295 260 214 222 209 191 192 174 197 180 209 232 223 208 202 176 184 196 182 174 174 170 169 165 168 163 158 166 160 157 141 154
203 167 233 203 207 236 344 238 161 142 219 243 167 264 166 214 144 161 177 217 221 167 226 229 225 204 210 204 183 191 188 186 183 169 166 172 164 162 165 167 165 160 155 157
175 192 184 266 107 282 206 200 211 118 93 213 157 263 319 344 40 246 184 205 217 205 254 259 245 222 221 220 193 196 195 191 181 176 172 173 173 174 176 171 165 162 158 162
121 168 212 236 205 144 188 192 203 208 217 224 233 245 230 182 244 246 218 215 216 216 223 226 233 227 228 216 200 202 201 192 177 179 182 182 182 184 182 172 168 167 166 166
353 225 225 252 332 316 197 201 211 209 226 211 252 240 251 230 220 227 225 223 221 232 228 230 237 227 225 222 211 205 203 190 177 181 190 191 181 180 174 170 172 169 174 175
165 247 197 250 268 239 250 240 218 222 238 238 254 259 252 210 220 214 249 252 240 235 238 237 230 223 224 219 213 206 205 195 183 187 192 181 176 175 176 174 171 168 170 168
180 183 199 259 231 246 245 232 230 226 234 223 241 246 261 229 207 231 245 225 242 249 245 242 232 229 231 227 212 206 199 181 188 193 189 177 174 176 176 170 170 172 175 168
224 208 202 246 156 246 243 178 214 221 235 219 247 256 259 230 213 230 242 185 237 237 243 251 258 258 249 231 199 182 167 176 186 189 186 175 174 175 170 170 175 175 173 176
216 222 244 247 244 272 274 204 161 181 250 230 228 253 263 261 102 267 181 214 239 260 268 267 278 273 272 237 192 156 164 166 172 181 178 173 166 166 168 174 172 168 165 168
218 222 224 224 239 243 238 289 26 98 245 236 215 239 250 248 237 262 142 150 160 273 280 289 296 290 303 259 153 145 149 162 174 166 164 159 163 162 167 169 163 159 152 145
159 207 235 239 248 249 258 155 168 197 247 210 201 226 242 223 224 102 173 235 240 244 269 290 316 127 185 151 129 125 132 161 148 135 138 142 148 151 150 147 145 142 140 139
229 205 212 222 241 251 4 339 191 323 310 253 207 244 234 206 205 235 239 226 232 267 338 2 75 64 44 122 124 138 147 137 131 126 130 136 137 137 138 135 139 143 144 151
226 249 244 229 233 236 218 216 239 174 289 312 310 303 237 171 212 222 248 217 178 87 22 23 135 105 57 93 120 129 143 135 128 127 137 134 131 139 146 147 150 149 156 164
259 240 247 260 228 246 282 291 269 225 182 274 267 306 294 244 225 214 249 248 137 55 84 103 106 91 74 65 94 117 130 131 122 127 129 132 136 135 135 141 156 163 173 171
215 76 229 260 311 326 320 312 284 267 233 225 234 226 259 275 260 212 237 255 124 135 154 122 126 115 100 64 79 120 136 133 129 132 129 132 137 145 145 139 162 159 174 179
175 201 235 254 244 263 268 272 49 307 261 225 225 244 246 246 246 160 181 180 162 150 111 103 93 101 71 88 84 49 59 144 143 133 137 144 137 124 122 115 92 109 136 153